User: anonymous   Login
Location: Trois-Rivi�res
(46.3500°N, 72.5500°W)
Time: 05:29:47
(UTC-04:00)
Language:

SJ-11-01 - Orbit

View from above orbital plane
View from above orbital plane
View from above satellite
View from above satellite

Ground track
Ground track

The orbit data is extracted from the following two-line orbital elements,

1 36088U 09061A   16183.75064999  .00000060  00000-0  22284-4 0  9997
2 36088  98.1870 230.9979 0010255 283.2493  76.7554 14.59848144353512
Epoch (UTC): 01 July 2016 18:00:56
Eccentricity: 0.0010255
inclination: 98.1870°
perigee height: 686 km
apogee height: 701 km
right ascension of ascending node: 230.9979°
argument of perigee: 283.2493°
revolutions per day: 14.59848144
mean anomaly at epoch: 76.7554°
orbit number at epoch: 35351

The dashed part of the orbit path shows where the satellite is in the earth's shadow,  

DLR